TimePST,TemperatureF,Dew PointF,Humidity,Sea Level PressureIn,VisibilityMPH,Wind Direction,Wind SpeedMPH,Gust SpeedMPH,PrecipitationIn,Events,Conditions,WindDirDegrees,DateUTC
12:53 AM,25.0,19.0,78,30.24,-9999.0,Calm,Calm,-,N/A,,Clear,0,2013-11-27 08:53:00
1:53 AM,27.0,21.9,81,30.23,-9999.0,WNW,4.6,-,N/A,,Mostly Cloudy,300,2013-11-27 09:53:00
2:53 AM,28.0,23.0,81,30.22,-9999.0,NE,4.6,-,N/A,,Partly Cloudy,50,2013-11-27 10:53:00
3:53 AM,26.1,21.9,84,30.22,-9999.0,South,3.5,-,N/A,,Clear,170,2013-11-27 11:53:00
4:53 AM,25.0,21.0,85,30.24,-9999.0,Calm,Calm,-,N/A,,Overcast,0,2013-11-27 12:53:00
5:53 AM,25.0,19.9,81,30.23,-9999.0,North,4.6,-,N/A,,Clear,350,2013-11-27 13:53:00
6:53 AM,26.1,21.9,84,30.23,8.0,NNE,5.8,-,N/A,,Clear,20,2013-11-27 14:53:00
7:53 AM,23.0,19.0,85,30.25,-9999.0,South,4.6,-,N/A,,Clear,190,2013-11-27 15:53:00
8:53 AM,28.9,21.9,75,30.24,-9999.0,South,4.6,-,N/A,,Clear,180,2013-11-27 16:53:00
9:53 AM,32.0,24.1,73,30.24,7.0,Calm,Calm,-,N/A,,Clear,0,2013-11-27 17:53:00
10:53 AM,39.0,26.1,60,30.21,-9999.0,Calm,Calm,-,N/A,,Clear,0,2013-11-27 18:53:00
11:53 AM,41.0,26.1,55,30.19,-9999.0,Calm,Calm,-,N/A,,Clear,0,2013-11-27 19:53:00
12:53 PM,41.0,26.1,55,30.17,10.0,Calm,Calm,-,N/A,,Clear,0,2013-11-27 20:53:00
1:53 PM,41.0,26.1,55,30.16,-9999.0,Calm,Calm,-,N/A,,Clear,0,2013-11-27 21:53:00
2:53 PM,41.0,26.1,55,30.15,10.0,Calm,Calm,-,N/A,,Clear,0,2013-11-27 22:53:00
3:53 PM,39.9,26.1,58,30.15,10.0,Calm,Calm,-,N/A,,Clear,0,2013-11-27 23:53:00
4:53 PM,30.9,23.0,72,30.17,-9999.0,NE,3.5,-,N/A,,Clear,40,2013-11-28 00:53:00
5:53 PM,28.0,21.9,78,30.18,-9999.0,Calm,Calm,-,N/A,,Clear,0,2013-11-28 01:53:00
6:53 PM,26.1,21.0,81,30.18,10.0,NNE,4.6,-,N/A,,Clear,20,2013-11-28 02:53:00
7:53 PM,25.0,19.9,81,30.19,10.0,Calm,Calm,-,N/A,,Clear,0,2013-11-28 03:53:00
8:53 PM,25.0,19.9,81,30.19,9.0,ESE,4.6,-,N/A,,Clear,120,2013-11-28 04:53:00
9:53 PM,24.1,19.9,84,30.20,9.0,Calm,Calm,-,N/A,,Clear,0,2013-11-28 05:53:00
10:53 PM,21.0,17.1,85,30.20,-9999.0,Calm,Calm,-,N/A,,Clear,0,2013-11-28 06:53:00
11:53 PM,21.0,17.1,85,30.19,-9999.0,Calm,Calm,-,N/A,,Clear,0,2013-11-28 07:53:00